GW5110 Weather Reports


Display with metric or nautical units.
time (UTC)temp
F
wind
direction
speed
MPH
gust
MPH
rain 1hr
in
rain 24hr
in
rain mn
in
humidity
%
barometer
mb
20260504081903 37 32 0.0 0.0 0.00 0.00 0.00 89 1019.8
20260504081400 37 32 0.0 0.0 0.00 0.00 0.00 88 1019.9
20260504080856 37 30 0.0 0.0 0.00 0.00 0.00 88 1019.8
20260504080353 37 27 0.0 0.0 0.00 0.00 0.00 88 1020.0
20260504070320 36 340 0.0 0.0 0.00 0.00 0.00 89 1020.4
20260504060241 35 287 0.0 0.0 0.00 0.00 0.00 86 1020.4
20260504050709 36 280 0.0 0.0 0.00 0.00 0.00 83 1020.9
20260504050206 36 280 0.0 0.0 0.00 0.00 0.00 83 1020.6
20260504045703 36 280 0.0 0.0 0.00 0.00 0.00 82 1021.0
20260504045203 36 280 0.0 0.0 0.00 0.00 0.00 82 1020.5
20260504044702 36 280 0.0 0.0 0.00 0.00 0.00 82 1020.5
20260504044158 37 280 0.0 0.0 0.00 0.00 0.00 81 1020.6
20260504043655 37 280 0.0 0.0 0.00 0.00 0.00 81 1020.8
20260504043152 37 280 0.0 0.0 0.00 0.00 0.00 80 1020.4
20260504042649 38 279 0.0 0.0 0.00 0.00 0.00 80 1020.5
20260504042146 38 269 0.0 0.0 0.00 0.00 0.00 79 1020.6
20260504041642 38 269 0.0 0.0 0.00 0.00 0.00 79 1020.3
20260504041138 38 281 0.0 0.0 0.00 0.00 0.00 79 1020.4
20260504040635 38 281 0.0 0.0 0.00 0.00 0.00 78 1020.4
20260504040132 38 280 0.0 0.0 0.00 0.00 0.00 78 1020.4
20260504035629 38 290 0.0 0.0 0.00 0.00 0.00 78 1020.3
20260504035125 39 286 0.0 0.0 0.00 0.00 0.00 77 1020.4
20260504034623 39 286 0.0 0.0 0.00 0.00 0.00 76 1020.4
20260504034120 39 286 0.0 0.0 0.00 0.00 0.00 75 1020.3
20260504033618 39 272 0.0 0.0 0.00 0.00 0.00 75 1020.3
20260504033115 40 273 0.0 0.0 0.00 0.00 0.00 74 1020.3
20260504032611 40 273 0.0 0.0 0.00 0.00 0.00 74 1020.1
20260504032109 40 240 0.0 0.0 0.00 0.00 0.00 73 1020.2
20260504031606 40 250 0.0 1.0 0.00 0.00 0.00 73 1020.1
20260504031101 40 241 0.0 0.0 0.00 0.00 0.00 73 1020.2
20260504030559 40 224 1.0 1.0 0.00 0.00 0.00 73 1020.1
20260504030055 41 257 0.0 0.0 0.00 0.00 0.00 72 1020.2
20260504025553 41 253 0.0 0.0 0.00 0.00 0.00 72 1020.4
20260504025049 41 237 0.0 0.0 0.00 0.00 0.00 72 1020.6
20260504024546 40 242 1.0 1.0 0.00 0.00 0.00 73 1020.4
20260504024043 40 239 0.0 0.0 0.00 0.00 0.00 72 1020.3
20260504023540 41 239 0.0 0.0 0.00 0.00 0.00 72 1020.4
20260504023036 41 234 0.0 0.0 0.00 0.00 0.00 71 1020.6
20260504022532 41 236 0.0 0.0 0.00 0.00 0.00 70 1020.4
20260504022028 41 240 0.0 0.0 0.00 0.00 0.00 69 1020.5
20260504021526 41 226 0.0 0.0 0.00 0.00 0.00 68 1020.3
20260504021023 42 186 0.0 1.0 0.00 0.00 0.00 67 1020.3
20260504020520 42 223 0.0 0.0 0.00 0.00 0.00 66 1020.1
20260504020016 42 229 0.0 0.0 0.00 0.00 0.00 65 1020.1
20260504015513 42 252 0.0 2.0 0.00 0.00 0.00 66 1020.1
20260504015008 43 225 0.0 0.0 0.00 0.00 0.00 65 1020.1
20260504014505 43 225 0.0 0.0 0.00 0.00 0.00 65 1020.1
20260504014002 44 225 0.0 1.0 0.00 0.00 0.00 64 1020.1
20260504013500 44 274 0.0 0.0 0.00 0.00 0.00 61 1019.9
20260504012955 45 156 0.0 0.0 0.00 0.00 0.00 58 1019.9
20260504012454 45 156 0.0 0.0 0.00 0.00 0.00 58 1019.9
20260504011952 44 253 0.0 1.0 0.00 0.00 0.00 56 1019.8
20260504011447 44 239 1.0 1.0 0.00 0.00 0.00 58 1019.5
20260504010944 45 250 0.0 0.0 0.00 0.00 0.00 57 1019.4
20260504010440 45 168 0.0 0.0 0.00 0.00 0.00 55 1019.5
20260504005936 46 274 0.0 0.0 0.00 0.00 0.00 55 1019.4
20260504005433 46 168 0.0 1.0 0.00 0.00 0.00 54 1019.6
20260504004930 46 235 0.0 0.0 0.00 0.00 0.00 50 1019.7
20260504004428 47 241 0.0 0.0 0.00 0.00 0.00 50 1019.5
20260504003925 47 187 0.0 1.0 0.00 0.00 0.00 51 1019.3
20260504003421 47 241 0.0 1.0 0.00 0.00 0.00 52 1018.9
20260504002918 48 271 0.0 0.0 0.00 0.00 0.00 49 1019.3
20260504002415 49 257 0.0 1.0 0.00 0.00 0.00 50 1019.1
20260504001912 49 241 0.0 0.0 0.00 0.00 0.00 48 1019.0
20260504001410 50 245 0.0 1.0 0.00 0.00 0.00 47 1019.0
20260504000906 51 242 0.0 1.0 0.00 0.00 0.00 45 1019.0
20260504000403 51 245 0.0 0.0 0.00 0.00 0.00 42 1019.0
20260503235901 52 239 0.0 0.0 0.00 0.00 0.00 41 1018.9
20260503235359 53 271 0.0 0.0 0.00 0.00 0.00 39 1019.0
20260503234855 54 268 0.0 0.0 0.00 0.00 0.00 35 1019.1
20260503234353 55 268 0.0 2.0 0.00 0.00 0.00 34 1019.0
20260503233851 55 249 1.0 2.0 0.00 0.00 0.00 33 1019.0
20260503233347 56 261 1.0 2.0 0.00 0.00 0.00 31 1019.0
20260503232843 56 280 0.0 1.0 0.00 0.00 0.00 32 1019.3
20260503232340 58 264 1.0 3.0 0.00 0.00 0.00 28 1019.0
20260503231839 58 253 0.0 2.0 0.00 0.00 0.00 28 1019.0
20260503231335 59 251 2.0 6.0 0.00 0.00 0.00 27 1019.3
20260503230831 59 253 2.0 7.0 0.00 0.00 0.00 27 1019.5
20260503230329 60 242 2.0 6.0 0.00 0.00 0.00 26 1019.4
20260503225826 59 109 1.0 1.0 0.00 0.00 0.00 27 1019.3
20260503225322 59 254 3.0 4.0 0.00 0.00 0.00 26 1019.3
20260503224818 58 250 3.0 4.0 0.00 0.00 0.00 27 1019.6
20260503224316 58 169 2.0 4.0 0.00 0.00 0.00 26 1019.4
20260503223814 59 271 3.0 4.0 0.00 0.00 0.00 27 1019.4
20260503223311 60 311 2.0 4.0 0.00 0.00 0.00 26 1019.5
20260503222806 61 276 4.0 6.0 0.00 0.00 0.00 25 1019.3
20260503222305 61 76 0.0 2.0 0.00 0.00 0.00 26 1019.4
20260503221803 60 212 2.0 6.0 0.00 0.00 0.00 27 1019.5
20260503221301 59 244 2.0 3.0 0.00 0.00 0.00 27 1019.4
20260503220757 59 248 6.0 9.0 0.00 0.00 0.00 28 1019.4
20260503220254 58 257 2.0 9.0 0.00 0.00 0.00 29 1019.5
20260503215750 60 242 5.0 9.0 0.00 0.00 0.00 28 1019.4
20260503215248 60 262 2.0 4.0 0.00 0.00 0.00 29 1019.4
20260503214746 59 242 4.0 6.0 0.00 0.00 0.00 27 1019.4
20260503214242 60 226 4.0 11.0 0.00 0.00 0.00 27 1019.6
20260503213740 60 278 3.0 3.0 0.00 0.00 0.00 27 1019.6
20260503213237 59 79 0.0 6.0 0.00 0.00 0.00 26 1019.7
20260503212734 60 238 7.0 9.0 0.00 0.00 0.00 26 1019.8
20260503212232 59 252 6.0 10.0 0.00 0.00 0.00 27 1019.8
20260503211729 60 231 5.0 8.0 0.00 0.00 0.00 26 1020.0
20260503211225 60 211 4.0 8.0 0.00 0.00 0.00 25 1020.0
20260503210721 60 35 2.0 6.0 0.00 0.00 0.00 27 1019.8
20260503210219 58 191 3.0 4.0 0.00 0.00 0.00 26 1019.8
20260503205714 58 279 4.0 8.0 0.00 0.00 0.00 25 1019.8
20260503205210 60 262 3.0 3.0 0.00 0.00 0.00 25 1020.1
20260503204706 59 276 4.0 6.0 0.00 0.00 0.00 27 1019.9
20260503204205 59 259 4.0 7.0 0.00 0.00 0.00 26 1019.9
20260503203701 58 251 3.0 11.0 0.00 0.00 0.00 26 1020.3
20260503203159 58 244 3.0 9.0 0.00 0.00 0.00 28 1020.3
20260503202655 59 278 2.0 3.0 0.00 0.00 0.00 27 1020.2
20260503202154 59 353 1.0 7.0 0.00 0.00 0.00 27 1020.5
20260503201652 58 248 3.0 4.0 0.00 0.00 0.00 28 1020.4
20260503201149 59 273 2.0 3.0 0.00 0.00 0.00 27 1020.4
20260503200645 59 239 6.0 8.0 0.00 0.00 0.00 27 1020.6
20260503200141 59 248 5.0 7.0 0.00 0.00 0.00 29 1020.5
20260503195638 58 150 0.0 4.0 0.00 0.00 0.00 28 1020.5
20260503195135 58 210 4.0 6.0 0.00 0.00 0.00 29 1021.0
20260503194632 58 269 9.0 13.0 0.00 0.00 0.00 29 1021.0
20260503194127 58 238 1.0 4.0 0.00 0.00 0.00 29 1021.0
20260503193625 57 238 4.0 6.0 0.00 0.00 0.00 30 1021.0
20260503193120 57 240 4.0 10.0 0.00 0.00 0.00 28 1021.0
20260503192616 57 274 3.0 6.0 0.00 0.00 0.00 27 1021.2
20260503192112 58 214 2.0 8.0 0.00 0.00 0.00 27 1021.3
20260503191609 58 144 1.0 7.0 0.00 0.00 0.00 28 1021.3
20260503191106 58 270 2.0 3.0 0.00 0.00 0.00 30 1021.5
20260503190603 57 256 3.0 7.0 0.00 0.00 0.00 30 1021.5
20260503190100 57 273 6.0 10.0 0.00 0.00 0.00 30 1021.6
20260503185556 57 248 7.0 8.0 0.00 0.00 0.00 30 1021.8
20260503185056 56 277 2.0 7.0 0.00 0.00 0.00 30 1021.8
20260503184552 56 254 5.0 10.0 0.00 0.00 0.00 30 1021.8
20260503184049 56 292 1.0 6.0 0.00 0.00 0.00 30 1021.8
20260503183545 56 25 0.0 2.0 0.00 0.00 0.00 30 1021.6
20260503183043 56 246 7.0 8.0 0.00 0.00 0.00 29 1021.9
20260503182541 57 194 2.0 4.0 0.00 0.00 0.00 30 1021.9
20260503182039 56 318 2.0 4.0 0.00 0.00 0.00 31 1021.7
20260503181535 57 186 1.0 3.0 0.00 0.00 0.00 31 1021.9
20260503181032 57 263 7.0 9.0 0.00 0.00 0.00 30 1022.0
20260503180529 56 57 0.0 3.0 0.00 0.00 0.00 33 1022.0
20260503180026 55 114 1.0 2.0 0.00 0.00 0.00 36 1022.4
20260503175524 56 257 2.0 6.0 0.00 0.00 0.00 30 1022.2
20260503175020 55 304 1.0 3.0 0.00 0.00 0.00 34 1022.3
20260503174518 54 251 3.0 4.0 0.00 0.00 0.00 34 1022.3
20260503174014 55 281 5.0 8.0 0.00 0.00 0.00 32 1022.4
20260503173509 55 274 4.0 9.0 0.00 0.00 0.00 33 1022.5
20260503173006 53 96 2.0 3.0 0.00 0.00 0.00 36 1022.5
20260503172504 53 84 1.0 4.0 0.00 0.00 0.00 33 1022.5
20260503172001 53 247 1.0 6.0 0.00 0.00 0.00 33 1022.6
20260503171457 53 249 3.0 9.0 0.00 0.00 0.00 31 1022.7
20260503170954 53 249 4.0 10.0 0.00 0.00 0.00 33 1022.7
20260503170450 52 16 1.0 1.0 0.00 0.00 0.00 36 1022.7
20260503150843 49 241 4.0 6.0 0.00 0.00 0.00 37 1023.6
20260503150339 48 266 3.0 6.0 0.00 0.00 0.00 37 1023.7
20260503140303 45 277 5.0 8.0 0.00 0.00 0.00 42 1023.9
20260503131232 45 259 4.0 7.0 0.00 0.00 0.00 48 1023.6
20260503130730 46 252 4.0 6.0 0.00 0.00 0.00 50 1023.7
20260503130227 45 330 1.0 3.0 0.00 0.00 0.00 52 1023.8
20260503120153 40 275 0.0 2.0 0.00 0.00 0.00 75 1022.8
20260503110621 32 221 0.0 1.0 0.00 0.00 0.00 92 1022.3
20260503110118 31 253 1.0 2.0 0.00 0.00 0.00 92 1022.0
20260503090508 31 240 0.0 1.0 0.00 0.00 0.00 89 1020.9